This is the latest recevied weather packets stored in our database for station/object KC8SWY-15. If no packets are shown the sender has not sent any weather packets the latest 10 day(s).
| Time | Temp. | Humidity | Pressure | Rain* | Wind** | Luminosity | Snow |
|---|---|---|---|---|---|---|---|
| 1778011468 | 10.56° C | 43% | 1009.3 hPa | 0 mm | - | - | - |
| 1778011168 | 10.56° C | 43% | 1009.2 hPa | 0 mm | - | - | - |
| 1778010868 | 10.56° C | 43% | 1009.2 hPa | 0 mm | - | - | - |
| 1778010568 | 10.56° C | 42% | 1009.3 hPa | 0 mm | - | - | - |
| 1778010268 | 10.56° C | 43% | 1009.3 hPa | 0 mm | - | - | - |
| 1778009968 | 10.56° C | 44% | 1009.2 hPa | 0 mm | - | - | - |
| 1778009668 | 10.56° C | 43% | 1009.2 hPa | 0 mm | - | - | - |
| 1778009368 | 10.56° C | 43% | 1009.3 hPa | 0 mm | - | - | - |
| 1778009068 | 10.56° C | 42% | 1009.2 hPa | 0 mm | - | - | - |
| 1778008768 | 10.56° C | 41% | 1009.2 hPa | 0 mm | - | - | - |
| 1778008468 | 10.56° C | 42% | 1009.2 hPa | 0 mm | - | - | - |
| 1778008168 | 10.56° C | 42% | 1009.3 hPa | 0 mm | - | - | - |
| 1778007868 | 11.11° C | 44% | 1009.2 hPa | 0 mm | - | - | - |
| 1778007569 | 11.11° C | 41% | 1009.1 hPa | 0 mm | - | - | - |
| 1778007268 | 11.11° C | 44% | 1009.1 hPa | 0 mm | - | - | - |
| 1778006968 | 11.11° C | 45% | 1009.1 hPa | 0 mm | - | - | - |
| 1778006669 | 11.11° C | 43% | 1008.9 hPa | 0 mm | - | - | - |
| 1778006368 | 11.11° C | 44% | 1008.9 hPa | 0 mm | - | - | - |
| 1778006069 | 11.11° C | 43% | 1008.8 hPa | 0 mm | - | - | - |
| 1778005769 | 11.11° C | 44% | 1008.7 hPa | 0 mm | - | - | - |
| 1778005469 | 11.11° C | 42% | 1008.7 hPa | 0 mm | - | - | - |
| 1778005169 | 11.11° C | 44% | 1008.6 hPa | 0 mm | - | - | - |
| 1778004869 | 11.11° C | 43% | 1008.7 hPa | 0 mm | - | - | - |
| 1778004569 | 11.11° C | 43% | 1008.6 hPa | 0 mm | - | - | - |
| 1778004269 | 11.11° C | 43% | 1008.6 hPa | 0 mm | - | - | - |
* Rain latest hour (hover to see other rain measurements)
** Current wind speed in m/s (hover to see current wind gust speed)